Regional Weather Roundup
Issued by NWS

Home | Current Version | Previous Version | Graphics & Text | Print | Product List | Glossary On
Versions: 1 2 3 4 5 6 7 8 9 10 11 12 13 14 15 16 17 18 19 20 21 22 23 24 25 26 27 28 29 30 31 32 33 34 35 36 37 38 39 40 41 42 43 44 45 46 47 48 49 50
000
ASUS43 KMKX 230700
RWRWI

WISCONSIN REGIONAL WEATHER ROUNDUP
NATIONAL WEATHER SERVICE MILWAUKEE/SULLIVAN WI
200 AM CDT WED APR 23 2014

NOTE: "FAIR" INDICATES FEW OR NO CLOUDS BELOW 12,000 FEET WITH NO
SIGNIFICANT WEATHER AND/OR OBSTRUCTIONS TO VISIBILITY.

WIZ001-002-006>008-014>016-023>028-230800-
NORTHWEST WISCONSIN

CITY           SKY/WX    TMP DP  RH WIND       PRES   REMARKS
SUPERIOR ARPT  CLEAR     31  26  82 NE5       30.14R WCI  26
ASHLAND        CLEAR     26  24  92 SW3       30.15R
HAYWARD        CLEAR     26  21  81 CALM      30.13R
SIREN          CLEAR     29  23  77 CALM      30.11S
RICE LAKE      CLEAR     31  29  93 CALM      30.14R
LADYSMITH      CLEAR     31  27  85 CALM      30.14R
EAU CLAIRE     NOT AVBL
MENOMONIE      SUNNY     37  28  71 CALM      30.12S
NEW RICHMOND   CLEAR     38  27  63 E3        30.10S
OSCEOLA        CLEAR     40  26  59 E5        30.13S
$$

WIZ003>005-009-010-017-018-230800-
NORTH CENTRAL WISCONSIN

CITY           SKY/WX    TMP DP  RH WIND       PRES   REMARKS
WOODRUFF       CLEAR     24  11  57 CALM      30.12R
RHINELANDER    CLEAR     24  21  88 W3        30.13R
EAGLE RIVER    CLEAR     25  25 100 CALM      30.11S
LAND O LAKES   CLEAR     22  22  96 CALM      30.12S
PHILLIPS       CLEAR     27  25  91 CALM      30.12R
TOMAHAWK       CLEAR     24  22  93 CALM      30.13R
MEDFORD        CLEAR     29  27  93 E3        30.12S
MERRILL        CLEAR     26  24  92 CALM      30.13R
$$

WIZ029-030-035-036-043>047-230800-
CENTRAL WISCONSIN

CITY           SKY/WX    TMP DP  RH WIND       PRES   REMARKS
WAUSAU         CLEAR     31  26  82 NW3       30.12R
MOSINEE        CLEAR     34  28  80 CALM      30.13S
MARSHFIELD     CLEAR     34  25  69 CALM      30.12S
STEVENS POINT  CLEAR     28  24  86 CALM      30.13S
WAUPACA        CLEAR     36  27  69 CALM      30.14R
WAUTOMA        NOT AVBL
WISC RAPIDS    CLEAR     30  25  81 CALM      30.14R
CAMP DOUGLAS   NOT AVBL
$$

WIZ011>013-019>022-031-037>040-048>050-230800-
NORTHEAST WISCONSIN

CITY           SKY/WX    TMP DP  RH WIND       PRES   REMARKS
ANTIGO         CLEAR     28  27  94 CALM      30.12R
STURGEON BAY   CLEAR     28  25  86 CALM      30.13S
GREEN BAY      CLEAR     32  28  85 W5        30.14R WCI  27
MANITOWOC      NOT AVBL
APPLETON       CLEAR     34  27  75 N3        30.12S
CLINTONVILLE   CLEAR     32  27  80 CALM      30.13S
OSHKOSH        CLEAR     38  27  64 NE5       30.12S WCI  34
$$

WIZ032>034-041-042-053>061-230800-
SOUTHWEST WISCONSIN

CITY           SKY/WX    TMP DP  RH WIND       PRES   REMARKS
LA CROSSE      CLEAR     43  26  51 CALM      30.12S
SPARTA         CLEAR     30  24  80 CALM      30.13F
VIROQUA        FAIR      37  28  69 E7        30.10S WCI  31
BOSCOBEL       CLEAR     37  30  75 CALM      30.12R
PRAIRIE DU CHI CLEAR     39  30  71 CALM      30.11R
PLATTEVILLE    FAIR      41  27  57 NE7       30.11S
$$

WIZ056-057-062-063-064-067-068-230800-
SOUTH CENTRAL WISCONSIN

CITY           SKY/WX    TMP DP  RH WIND       PRES   REMARKS
BARABOO/DELLS  CLEAR     34  26  74 E3        30.12S
LONE ROCK      NOT AVBL
WATERTOWN      CLEAR     35  29  78 CALM      30.11S
MADISON        CLEAR     35  28  75 NW3       30.13R
MIDDLETON      FAIR      35  28  78 CALM      30.12S
MONROE         CLEAR     38  30  71 NE6       30.10S WCI  34
JANESVILLE     CLEAR     34  28  80 CALM      30.11S
$$

WIZ051-052-058>065-066-070>072-230800-
SOUTHEAST WISCONSIN

CITY           SKY/WX    TMP DP  RH WIND       PRES   REMARKS
MILWAUKEE      CLEAR     35  29  78 N8        30.13R WCI  29
WAUKESHA       CLEAR     32  28  86 CALM      30.13S
MILWAUKEE/TIMM CLEAR     34  28  80 CALM      30.13R
RACINE         CLEAR     34  28  79 N8        30.13S WCI  27
BURLINGTON     CLEAR     32  28  86 CALM      30.13R
KENOSHA        CLEAR     34  29  82 N3        30.12R
FOND DU LAC    CLEAR     37  27  67 NE3       30.13R
SHEBOYGAN      CLEAR     30  29  96 W3        30.12S
WEST BEND      CLEAR     32  30  93 CALM      30.12R
JUNEAU         CLEAR     37  27  66 N5        30.12S WCI  34
$$

LSZ147-162-230800-
LAKE SUPERIOR

STATION/POSITION TIME  TEMP    WIND        PRES    WAVE
                       AIR SEA DIR/SP/G            HT/PER
                 (UTC) (F)     (DEG/KT/KT) (MB)    (FT/S)
DEVILS ISLAND    0600   38     150/  6/  7 1021.4R
PORT WING        0600   29     180/  2/  2 1020.3R
SAXON HARBOR     0600           CALM  /  3 1020.3
$$

LMZ867-665-643>646-230800-
LAKE MICHIGAN

STATION/POSITION TIME  TEMP    WIND        PRES    WAVE
                       AIR SEA DIR/SP/G            HT/PER
                 (UTC) (F)     (DEG/KT/KT) (MB)    (FT/S)
NORTHPORT PIER   0600   32     300/  7/ 10 1020.0R
SISTER BAY       0609   32      10/  7/  8   N/A
KEWAUNEE LAKESHO 0600   32     320/  3/  5 1020.6R
SHEBOYGAN LAKESH 0600   37      20/  7/  9 1020.8R
PORT WASHINGTON  0600   36      10/  5/  6 1020.7
MILWAUKEE LAKESH 0600   36      20/ 12/ 14   N/A
KENOSHA   LAKESH 0600   37      30/ 14/ 16   N/A
$$

TC  - TEMPERATURE IN CELSIUS
VSB - VISIBILITY IN STATUTE MILES
WCI - WIND CHILL INDEX
HX  - HEAT INDEX




USA.gov is the U.S. government's official web portal to all federal, state and local government web resources and services.